Location: *
(45.9500°N, 9.0833°E)
Time: 12:34:27
(UTC+00:00)

CZ-4 R/B - Pass Details

Date: 03 March 2021
Orbit: 532 x 597 km, 97.7° (Epoch: 19 April)

Event Time Altitude Azimuth Distance (km) Brightness Sun altitude
Rises 18:01:38 0° 169° (S) 2,665 4.7 -9.2°
Reaches altitude 10° 18:03:43 10° 171° (S) 1,783 3.8 -9.6°
Maximum altitude 18:07:34 77° 257° (WSW) 558 1.5 -10.3°
Drops below altitude 10° 18:11:30 10° 344° (NNW) 1,821 4.2 -10.9°
Sets 18:13:39 0° 346° (NNW) 2,729 5.1 -11.3°
